Weather Service Report


356 
ASUS43 KIND 312159
RWRIN 

WEATHER ROUNDUP FOR INDIANA
NATIONAL WEATHER SERVICE INDIANAPOLIS IN
600 PM EDT WED AUG 31 2016

NOTE: "FAIR" INDICATES FEW OR NO CLOUDS BELOW 12,000 FEET WITH NO
SIGNIFICANT WEATHER AND/OR OBSTRUCTIONS TO VISIBILITY.

* - STATION DOES NOT REPORT WEATHER SUCH AS PRECIPITATION OR FOG.

+ - STATION NOT QUALITY CONTROLLED BY THE NATIONAL WEATHER SERVICE.
    USE DATA WITH CAUTION...ESPECIALLY DEWPOINT AND RELATIVE
    HUMIDITY OBSERVATIONS.

INZ001>003-010>013-019-020-312300-
NORTHWEST INDIANA
  
CITY           SKY/WX    TMP DP  RH WIND       PRES   REMARKS
GARY /AIRPORT/ PTSUNNY   73  63  68 MISG      30.07S                  
KNOX *+        CLOUDY    73  37  27 N14       30.03S                  
MONTICELLO +   PTSUNNY   75  59  56 N13G22    30.01R                  
RENSSELAER +   CLOUDY    73  63  68 N13G22    30.03F                  

$$

LMZ046-743>745-312300-
SOUTHERN LAKE MICHIGAN
  
STATION/POSITION TIME  TEMP    WIND        PRES    WAVE
                       AIR SEA DIR/SP/G            HT
                 (UTC) (F)     (DEG/KT/KT) (MB)    (FT)
BURNS HARBOR     2108   71      10/ 16/ 21 1017.9S
MICHIGAN CITY    2100   70     350/ 21/ 24   N/A
5NW MICH CITY    2100   71 67  360/ 17/ 23   N/A     6

$$

INZ004-005-014>016-021>024-312300-
NORTH CENTRAL INDIANA
  
CITY           SKY/WX    TMP DP  RH WIND       PRES   REMARKS
ELKHART        MOSUNNY  N/A N/A N/A NW12      30.01S                  
GOSHEN         PTSUNNY   77  65  66 N16       30.00S                  
SOUTH BEND     CLOUDY    73  60  63 N14       30.03S                  

$$

INZ006>009-017-018-025>027-312300-
NORTHEAST INDIANA
  
CITY           SKY/WX    TMP DP  RH WIND       PRES   REMARKS
ANGOLA *+      CLOUDY    73  66  78 N6        29.99S                  
FORT WAYNE     CLOUDY    75  67  76 NW8       29.98R                  

$$

INZ028-029-035-036-043>045-051>053-312300-
WEST CENTRAL INDIANA
  
CITY           SKY/WX    TMP DP  RH WIND       PRES   REMARKS
CRAWFORDSVL +  CLOUDY    78  70  76 N6        29.99S                  
GREENCASTLE +  CLOUDY    81  72  74 NW5       29.98F                  
LAFAYETTE      CLOUDY    76  66  71 N15G24    29.99R                  
TERRE HAUTE    CLOUDY    81  70  69 N5        29.97S                  

$$

INZ030>032-037>040-046>048-054>057-064-065-312300-
CENTRAL INDIANA
  
CITY           SKY/WX    TMP DP  RH WIND       PRES   REMARKS
COLUMBUS       MOSUNNY   81  73  78 CALM      29.95S                  
INDIANAPOLIS   PTSUNNY   82  66  58 N14       29.96S                  
-EAGLE CREEK   PTSUNNY   82  68  62 N8        29.97R                  
KOKOMO *+      CLOUDY    77  72  83 N13       29.98S                  
MT COMFORT *+  MOSUNNY   81  72  74 N8        29.98R                  
SHELBYVILLE    MOSUNNY   83  69  62 N9        29.95S                  

$$

INZ033-034-041-042-049-050-058-059-312300-
EAST CENTRAL INDIANA
  
CITY           SKY/WX    TMP DP  RH WIND       PRES   REMARKS
MUNCIE         CLOUDY    80  71  74 NW6       29.97S                  

$$

INZ060-061-067>069-081>083-085>088-312300-
SOUTHWEST INDIANA
  
CITY           SKY/WX    TMP DP  RH WIND       PRES   REMARKS
EVANSVILLE     SUNNY     88  69  53 VRB5      29.95S                  
HUNTINGBURG *+ PTSUNNY   84  70  61 NW7       29.95S                  

$$

INZ062-063-066-070>080-084-089>092-312300-
SOUTH CENTRAL AND SOUTHEAST INDIANA
  
CITY           SKY/WX    TMP DP  RH WIND       PRES   REMARKS
BLOOMINGTON    MOSUNNY   82  70  66 N7        29.97R                  
MADISON *+     CLOUDY    77  72  83 NW3       29.97F                  

$$

  

Return to Home page


Western Regional Climate Center, wrcc@dri.edu